1496779200.27,30166,18.63,73602.5,4.33,3.49,3.49,0,*7B
1496779201.51,30167,18.63,73602.3,4.35,3.53,3.53,0,*7C
1496779202.76,30168,18.63,73596.3,4.35,3.53,3.45,0,*74
1496779203.96,30169,18.63,73616.8,4.35,3.63,3.63,0,*72
1496779205.13,30170,18.63,73624.5,4.33,3.59,3.63,0,*75
1496779206.37,30171,18.63,73612.3,4.33,3.67,3.67,0,*7D
1496779207.57,30172,18.63,73616.5,4.33,3.63,3.67,0,*7A
1496779208.82,30173,18.63,73618.8,4.35,3.67,3.67,0,*79
1496779210.08,30174,18.63,73614.5,4.35,3.67,3.67,0,*7E
1496779211.33,30175,18.63,73608.0,4.35,3.53,3.45,0,*78
1496779212.57,30176,18.63,73610.3,4.35,3.45,3.53,0,*7B
1496779213.82,30177,18.63,73616.5,4.35,3.53,3.45,0,*7A
1496779215.0,30178,18.63,73610.0,4.33,3.25,3.25,0,*74
1496779216.23,30179,18.69,73606.3,4.35,3.29,3.33,0,*78
1496779217.47,30180,18.63,73596.0,4.33,3.41,3.41,0,*73
1496779218.73,30181,18.63,73600.5,4.31,3.37,3.49,0,*79
1496779219.95,30182,18.63,73598.8,4.35,3.53,3.55,0,*71
1496779221.19,30183,18.63,73590.0,4.33,3.41,3.41,0,*70
1496779222.42,30184,18.63,73590.3,4.33,3.41,3.37,0,*76
1496779223.65,30185,18.63,73600.3,4.33,3.49,3.49,0,*76
1496779224.88,30186,18.63,73610.8,4.33,3.49,3.49,0,*75
1496779226.05,30187,18.63,73608.3,4.33,3.59,3.59,0,*74
1496779227.27,30188,18.63,73600.3,4.35,3.53,3.55,0,*7B
1496779228.47,30189,18.63,73614.3,4.33,3.59,3.53,0,*70
1496779229.65,30190,18.63,73608.8,4.33,3.59,3.59,0,*72
1496779230.82,30191,18.63,73620.5,4.33,3.59,3.59,0,*73
1496779232.02,30192,18.63,73624.3,4.31,3.59,3.59,0,*72
1496779233.2,30193,18.63,73624.8,4.33,3.59,3.59,0,*71
1496779234.4,30194,18.63,73612.5,4.33,3.53,3.59,0,*7C
1496779235.66,30195,18.63,73604.3,4.35,3.45,3.41,0,*75
1496779236.91,30196,18.63,73606.0,4.35,3.45,3.45,0,*72
1496779238.11,30197,18.63,73606.8,4.35,3.63,3.63,0,*73
1496779239.31,30198,18.63,73614.5,4.33,3.59,3.53,0,*70
1496779240.48,30199,18.63,73612.5,4.33,3.59,3.59,0,*7B
1496779241.68,30200,18.63,73606.5,4.33,3.53,3.59,0,*72
1496779242.91,30201,18.63,73604.0,4.33,3.49,3.49,0,*79
1496779244.14,30202,18.63,73606.0,4.33,3.49,3.49,0,*7A
1496779245.36,30203,18.63,73606.8,4.33,3.53,3.53,0,*7B
1496779246.53,30204,18.63,73616.0,4.33,3.59,3.59,0,*7C
1496779247.76,30205,18.63,73624.8,4.33,3.49,3.49,0,*7D
1496779248.97,30206,18.63,73626.8,4.31,3.59,3.59,0,*7C
1496779250.17,30207,18.69,73628.8,4.33,3.63,3.67,0,*7B
1496779251.37,30208,18.63,73620.0,4.31,3.63,3.63,0,*72
1496779252.54,30209,18.63,73618.8,4.33,3.63,3.63,0,*71
1496779253.75,30210,18.63,73614.8,4.33,3.67,3.63,0,*7D
1496779254.93,30211,18.63,73618.0,4.33,3.63,3.63,0,*78
1496779256.18,30212,18.63,73612.8,4.35,3.67,3.67,0,*7D
1496779257.38,30213,18.63,73626.3,4.33,3.63,3.67,0,*7E
1496779258.58,30214,18.63,73624.8,4.33,3.63,3.67,0,*79
1496779259.82,30215,18.63,73624.0,4.33,3.67,3.75,0,*7F
1496779261.0,30216,18.69,73630.5,4.33,3.63,3.63,0,*7F
1496779262.17,30217,18.63,73610.0,4.33,3.63,3.63,0,*7E
1496779263.37,30218,18.69,73624.8,4.33,3.63,3.53,0,*72
1496779264.6,30219,18.63,73626.5,4.35,3.67,3.63,0,*72
1496779265.84,30220,18.63,73614.8,4.35,3.53,3.53,0,*7C
1496779267.1,30221,18.63,73616.8,4.35,3.45,3.45,0,*7D
1496779268.28,30222,18.63,73612.0,4.33,2.91,2.95,0,*7C
1496779269.46,30223,18.63,73608.8,4.33,2.91,2.95,0,*7D
1496779270.72,30224,18.63,73600.3,4.31,3.15,3.07,0,*7F
1496779271.92,30225,18.63,73606.0,4.31,2.95,2.95,0,*7D
1496779273.19,30226,18.63,73604.8,4.31,3.15,3.15,0,*7E
1496779274.4,30227,18.63,73600.3,4.31,3.25,3.29,0,*73
1496779275.61,30228,18.63,73596.8,4.31,3.29,3.25,0,*7C
1496779276.84,30229,18.63,73598.5,4.31,3.29,3.37,0,*7E
1496779278.04,30230,18.63,73600.8,4.31,3.59,3.59,0,*79
1496779279.24,30231,18.63,73594.5,4.31,3.63,3.63,0,*78
1496779280.47,30232,18.63,73596.0,4.31,3.63,3.67,0,*7F
1496779281.71,30233,18.63,73592.0,4.31,3.67,3.63,0,*7E
1496779282.97,30234,18.63,73582.3,4.31,3.07,3.07,0,*7D
1496779284.23,30235,18.63,73584.3,4.31,3.03,3.03,0,*7C
1496779285.43,30236,18.63,73590.3,4.31,2.95,2.95,0,*7F
1496779286.6,30237,18.63,73590.8,4.27,2.95,2.95,0,*79
1496779287.81,30238,18.63,73594.8,4.29,3.33,3.25,0,*7F
1496779289.04,30239,18.63,73588.0,4.29,3.33,3.33,0,*79
1496779290.27,30240,18.63,73594.0,4.29,3.37,3.37,0,*77
1496779291.46,30241,18.63,73592.3,4.27,3.33,3.29,0,*73
1496779292.69,30242,18.63,73592.0,4.29,3.37,3.45,0,*70
1496779293.91,30243,18.63,73588.8,4.27,3.19,3.19,0,*7A
1496779295.14,30244,18.63,73594.5,4.29,3.33,3.33,0,*73
1496779296.36,30245,18.63,73594.8,4.27,3.23,3.23,0,*7C
1496779297.59,30246,18.63,73592.8,4.27,3.41,3.41,0,*7F
1496779298.8,30247,18.63,73600.3,4.27,3.53,3.53,0,*7E
1496779300.02,30248,18.63,73610.3,4.27,3.53,3.53,0,*71
1496779301.19,30249,18.63,73608.5,4.29,3.55,3.59,0,*72
1496779302.38,30250,18.63,73604.0,4.27,3.55,3.53,0,*7E
1496779303.61,30251,18.63,73608.5,4.27,3.41,3.45,0,*7D
1496779304.78,30252,18.63,73608.3,4.29,3.55,3.55,0,*74
1496779306.01,30253,18.63,73614.0,4.29,3.49,3.45,0,*79
1496779307.24,30254,18.63,73612.5,4.29,3.49,3.45,0,*7E
1496779308.45,30255,18.63,73614.0,4.27,3.53,3.53,0,*7D
1496779309.65,30256,18.63,73616.3,4.29,3.49,3.55,0,*7D
1496779310.88,30257,18.63,73618.3,4.27,3.41,3.45,0,*7B
1496779312.05,30258,18.63,73612.3,4.29,3.55,3.55,0,*7E
1496779313.26,30259,18.63,73614.3,4.29,3.75,3.63,0,*78
1496779314.5,30260,18.63,73616.0,4.29,3.75,3.75,0,*75
1496779315.68,30261,18.63,73612.8,4.29,3.81,3.81,0,*74
1496779316.89,30262,18.63,73614.8,4.29,3.75,3.81,0,*7C
1496779318.13,30263,18.63,73610.5,4.29,3.75,3.75,0,*76
1496779319.37,30264,18.63,73608.5,4.29,3.71,3.75,0,*75
1496779320.63,30265,18.63,73604.8,4.31,3.79,3.75,0,*75
1496779321.89,30266,18.63,73602.5,4.31,3.75,3.75,0,*7A
1496779323.12,30267,18.63,73610.5,4.31,3.75,3.63,0,*7C
1496779324.37,30268,18.63,73608.3,4.31,3.53,3.53,0,*74
1496779325.63,30269,18.63,73612.8,4.31,3.49,3.49,0,*75
1496779326.83,30270,18.63,73612.3,4.31,3.59,3.59,0,*7D
1496779328.03,30271,18.63,73614.8,4.31,3.59,3.59,0,*7C
1496779329.29,30272,18.63,73612.0,4.31,3.67,3.67,0,*7F
1496779330.52,30273,18.63,73616.0,4.31,3.63,3.67,0,*7A
1496779331.74,30274,18.63,73608.0,4.33,3.49,3.53,0,*70
1496779333.01,30275,18.63,73604.8,4.31,3.41,3.41,0,*78
1496779334.26,30276,18.63,73610.5,4.31,3.49,3.49,0,*7B
1496779335.52,30277,18.63,73608.0,4.31,3.49,3.49,0,*7A
1496779336.72,30278,18.63,73610.5,4.29,3.49,3.55,0,*71
1496779337.95,30279,18.63,73606.0,4.29,3.45,3.45,0,*7D
1496779339.18,30280,18.63,73604.0,4.29,3.37,3.37,0,*7B
1496779340.41,30281,18.63,73606.0,4.29,3.45,3.45,0,*7A
1496779341.59,30282,18.63,73606.5,4.29,3.55,3.55,0,*79
1496779342.76,30283,18.63,73606.8,4.29,3.55,3.55,0,*78
1496779343.94,30284,18.63,73604.8,4.29,3.63,3.59,0,*76
1496779345.14,30285,18.63,73608.8,4.29,3.71,3.63,0,*7D
1496779346.34,30286,18.63,73608.3,4.29,3.71,3.63,0,*7E
1496779347.52,30287,18.63,73606.8,4.29,3.63,3.63,0,*7C
1496779348.73,30288,18.63,73608.0,4.29,3.59,3.49,0,*72
1496779349.96,30289,18.63,73602.5,4.29,3.45,3.37,0,*77
1496779351.19,30290,18.63,73610.3,4.29,3.45,3.45,0,*7A
1496779352.42,30291,18.63,73608.0,4.29,3.49,3.45,0,*77
1496779353.62,30292,18.63,73604.3,4.29,3.55,3.49,0,*75
1496779354.79,30293,18.63,73610.8,4.29,3.55,3.55,0,*79
1496779355.97,30294,18.63,73608.5,4.29,3.59,3.63,0,*77
1496779357.19,30295,18.63,73612.0,4.27,3.53,3.45,0,*76
1496779358.42,30296,18.63,73612.0,4.29,3.45,3.49,0,*70
1496779359.66,30297,18.63,73614.8,4.29,3.45,3.49,0,*71
1496779360.83,30298,18.63,73616.3,4.29,3.55,3.55,0,*72
1496779362.03,30299,18.63,73622.0,4.29,3.55,3.49,0,*7E
1496779363.26,30300,18.63,73616.5,4.29,3.37,3.37,0,*72
1496779364.49,30301,18.63,73616.0,4.29,3.45,3.37,0,*76
1496779365.72,30302,18.63,73614.3,4.29,3.49,3.49,0,*70
1496779366.89,30303,18.63,73618.5,4.29,3.55,3.55,0,*71
1496779368.06,30304,18.63,73616.3,4.29,3.55,3.55,0,*76
1496779369.24,30305,18.63,73622.3,4.29,3.63,3.59,0,*7E
1496779370.41,30306,18.63,73620.5,4.27,3.59,3.59,0,*7A
1496779371.59,30307,18.63,73620.3,4.29,3.59,3.63,0,*7C
1496779372.75,30308,18.63,73622.5,4.27,3.59,3.59,0,*74
1496779373.93,30309,18.63,73616.8,4.29,3.59,3.59,0,*7B
1496779375.16,30310,18.63,73616.0,4.29,3.49,3.49,0,*73
1496779376.38,30311,18.63,73612.0,4.27,3.23,3.23,0,*7C
1496779377.62,30312,18.63,73612.5,4.29,3.15,3.11,0,*75
1496779378.85,30313,18.63,73608.3,4.29,3.23,3.23,0,*70
1496779380.04,30314,18.63,73606.0,4.27,3.29,3.23,0,*73
1496779381.26,30315,18.63,73606.8,4.27,3.33,3.41,0,*7D
1496779382.44,30316,18.63,73606.3,4.29,3.55,3.55,0,*75
1496779383.65,30317,18.63,73612.3,4.27,3.53,3.53,0,*7A
1496779384.87,30318,18.63,73604.5,4.27,3.53,3.53,0,*75
1496779386.04,30319,18.63,73610.3,4.29,3.55,3.55,0,*7A
1496779387.27,30320,18.63,73606.3,4.29,3.45,3.45,0,*70
1496779388.43,30321,18.63,73610.8,4.27,3.55,3.55,0,*7F
1496779389.62,30322,18.63,73604.3,4.27,3.53,3.55,0,*7A
1496779390.81,30323,18.63,73608.5,4.27,3.49,3.59,0,*7C
1496779392.03,30324,18.63,73608.0,4.27,3.53,3.53,0,*7A
1496779393.24,30325,18.63,73606.3,4.27,3.53,3.53,0,*7B
1496779394.41,30326,18.63,73608.0,4.29,3.55,3.55,0,*76
1496779395.63,30327,18.63,73610.8,4.27,3.53,3.53,0,*79
1496779396.8,30328,18.63,73610.8,4.29,3.55,3.59,0,*74
1496779398.02,30329,18.63,73614.5,4.27,3.45,3.53,0,*70
1496779399.25,30330,18.63,73612.3,4.27,3.41,3.41,0,*7F
1496779400.47,30331,18.63,73610.5,4.27,3.33,3.33,0,*7E
1496779401.7,30332,18.63,73616.5,4.29,3.45,3.37,0,*76
1496779402.93,30333,18.63,73614.0,4.27,3.41,3.33,0,*79
1496779404.15,30334,18.63,73612.3,4.27,3.33,3.33,0,*7B
1496779405.32,30335,18.63,73618.0,4.27,3.29,3.29,0,*7A
1496779406.56,30336,18.63,73618.5,4.27,3.41,3.41,0,*79
1496779407.79,30337,18.63,73620.0,4.29,3.45,3.37,0,*73
1496779408.98,30338,18.63,73620.8,4.27,3.29,3.23,0,*7D
1496779410.2,30339,18.63,73618.3,4.27,3.23,3.23,0,*76
1496779411.38,30340,18.63,73618.3,4.27,3.29,3.29,0,*78
1496779412.59,30341,18.63,73614.3,4.27,3.23,3.19,0,*70
1496779413.79,30342,18.63,73614.5,4.27,3.29,3.23,0,*70
1496779414.98,30343,18.63,73610.8,4.27,3.29,3.23,0,*71
1496779416.18,30344,18.63,73616.5,4.27,3.41,3.29,0,*72
1496779417.4,30345,18.63,73614.8,4.27,3.33,3.23,0,*7C
1496779418.6,30346,18.63,73612.5,4.27,3.41,3.29,0,*70
1496779419.8,30347,18.63,73612.5,4.29,3.33,3.29,0,*7A
1496779421.0,30348,18.63,73612.8,4.27,3.33,3.29,0,*7B
1496779422.22,30349,18.63,73610.0,4.27,3.23,3.23,0,*71
1496779423.41,30350,18.63,73606.8,4.27,3.19,3.29,0,*7A
1496779424.64,30351,18.63,73608.8,4.27,3.11,3.23,0,*79
1496779425.84,30352,18.63,73606.3,4.27,3.23,3.25,0,*7D
1496779427.06,30353,18.63,73604.5,4.27,3.11,3.23,0,*7B
1496779428.27,30354,18.63,73598.3,4.27,3.19,3.19,0,*7D
1496779429.48,30355,18.63,73598.0,4.27,3.29,3.41,0,*72
1496779430.69,30356,18.63,73594.0,4.27,3.33,3.53,0,*79
1496779431.91,30357,18.63,73592.3,4.27,3.45,3.53,0,*79
1496779433.12,30358,18.63,73592.0,4.27,3.53,3.53,0,*71
1496779434.35,30359,18.63,73592.8,4.27,3.45,3.45,0,*70
1496779435.57,30360,18.63,73594.5,4.27,3.41,3.45,0,*7E
1496779436.82,30361,18.63,73592.3,4.25,3.41,3.53,0,*7A
1496779438.06,30362,18.63,73592.3,4.25,3.53,3.53,0,*7A
1496779439.28,30363,18.63,73594.8,4.27,3.33,3.45,0,*78
1496779440.5,30364,18.63,73594.0,4.27,3.53,3.53,0,*7E
1496779441.72,30365,18.63,73588.0,4.27,3.45,3.45,0,*7F
1496779442.95,30366,18.63,73584.5,4.27,3.45,3.41,0,*78
1496779444.18,30367,18.63,73586.3,4.29,3.37,3.37,0,*73
1496779445.39,30368,18.63,73582.3,4.29,3.29,3.33,0,*77
1496779446.62,30369,18.63,73582.8,4.27,3.45,3.41,0,*77
1496779447.84,30370,18.63,73578.3,4.27,3.33,3.33,0,*7B
1496779449.07,30371,18.63,73574.3,4.27,3.41,3.41,0,*7A
1496779450.29,30372,18.63,73576.8,4.27,3.45,3.45,0,*79
1496779451.54,30373,18.63,73570.0,4.25,3.53,3.53,0,*7A
1496779452.75,30374,18.63,73564.8,4.27,3.45,3.53,0,*78
1496779453.92,30375,18.63,73568.8,4.29,3.55,3.55,0,*70
1496779455.15,30376,18.63,73572.5,4.27,3.45,3.45,0,*7D
1496779456.37,30377,18.63,73560.5,4.27,3.53,3.45,0,*7B
1496779457.58,30378,18.63,73572.8,4.27,3.53,3.53,0,*73
1496779458.8,30379,18.63,73578.0,4.27,3.53,3.53,0,*72
1496779459.99,30380,18.63,73572.8,4.25,3.55,3.59,0,*7A
1496779461.15,30381,18.63,73570.5,4.27,3.55,3.55,0,*75
1496779462.34,30382,18.63,73560.3,4.27,3.53,3.55,0,*70
1496779463.55,30383,18.63,73566.0,4.27,3.53,3.53,0,*77
1496779464.74,30384,18.63,73570.5,4.27,3.55,3.53,0,*76
1496779465.91,30385,18.63,73574.3,4.27,3.55,3.55,0,*71
1496779467.12,30386,18.63,73582.3,4.27,3.53,3.53,0,*72
1496779468.36,30387,18.63,73580.3,4.25,3.53,3.53,0,*71
1496779469.6,30388,18.63,73584.8,4.25,3.53,3.53,0,*7E
1496779470.79,30389,18.63,73588.5,4.27,3.53,3.55,0,*7B
1496779471.97,30390,18.63,73592.3,4.29,3.63,3.63,0,*7B
1496779473.19,30391,18.63,73594.8,4.27,3.67,3.67,0,*74
1496779474.42,30392,18.63,73598.5,4.27,3.67,3.67,0,*77
1496779475.64,30393,18.63,73590.3,4.27,3.67,3.67,0,*76
1496779476.87,30394,18.63,73586.5,4.27,3.67,3.67,0,*71
1496779478.03,30395,18.63,73590.5,4.27,3.55,3.59,0,*7C
1496779479.2,30396,18.63,73588.0,4.27,3.59,3.59,0,*73
1496779480.39,30397,18.63,73588.0,4.27,3.55,3.53,0,*74
1496779481.56,30398,18.63,73590.0,4.27,3.59,3.55,0,*71
1496779482.72,30399,18.63,73572.8,4.27,3.55,3.55,0,*7C
1496779483.89,30400,18.63,73580.5,4.29,3.55,3.55,0,*75
1496779485.07,30401,18.63,73572.5,4.29,3.59,3.59,0,*74
1496779486.23,30402,18.63,73582.0,4.27,3.55,3.59,0,*75
1496779487.47,30403,18.63,73580.3,4.29,3.71,3.71,0,*76
1496779488.66,30404,18.63,73574.5,4.27,3.55,3.45,0,*7E
1496779489.83,30405,18.63,73556.3,4.29,3.55,3.55,0,*70
1496779491.06,30406,18.63,73578.0,4.27,3.33,3.41,0,*78
1496779492.26,30407,18.63,73554.0,4.27,3.29,3.33,0,*77
1496779493.46,30408,18.63,73564.8,4.27,3.29,3.41,0,*7D
1496779494.7,30409,18.63,73572.0,4.27,3.41,3.41,0,*72
1496779495.92,30410,18.63,73572.0,4.27,3.45,3.45,0,*7A
1496779497.1,30411,18.63,73580.8,4.27,3.29,3.29,0,*7B
1496779498.32,30412,18.63,73594.8,4.27,3.33,3.33,0,*78
1496779499.54,30413,18.63,73598.0,4.27,3.41,3.45,0,*7D
1496779500.77,30414,18.63,73592.8,4.27,3.45,3.45,0,*7E
1496779501.98,30415,18.63,73588.8,4.27,3.53,3.53,0,*7F
1496779503.2,30416,18.63,73594.3,4.27,3.53,3.53,0,*7C
1496779504.36,30417,18.63,73594.8,4.27,3.55,3.55,0,*7D
1496779505.52,30418,18.63,73594.5,4.27,3.55,3.55,0,*72
1496779506.69,30419,18.63,73598.3,4.27,3.59,3.55,0,*7F
1496779507.86,30420,18.63,73596.0,4.27,3.59,3.59,0,*79
1496779509.03,30421,18.63,73592.0,4.27,3.59,3.63,0,*71
1496779510.2,30422,18.63,73594.0,4.27,3.59,3.59,0,*7B
1496779511.36,30423,18.63,73592.8,4.27,3.59,3.59,0,*7A
1496779512.54,30424,18.63,73594.3,4.29,3.63,3.63,0,*73
1496779513.7,30425,18.63,73600.5,4.27,3.55,3.55,0,*7C
1496779514.87,30426,18.63,73602.8,4.27,3.59,3.55,0,*73
1496779516.04,30427,18.63,73600.5,4.27,3.59,3.59,0,*7E
1496779517.26,30428,18.63,73590.5,4.27,3.67,3.67,0,*71
1496779518.43,30429,18.63,73574.5,4.27,3.59,3.59,0,*70
1496779519.65,30430,18.63,73568.8,4.27,3.45,3.53,0,*7F
1496779520.88,30431,18.63,73568.3,4.29,3.37,3.37,0,*77
1496779522.07,30432,18.63,73556.3,4.27,3.33,3.29,0,*71
1496779523.3,30433,18.63,73572.0,4.27,3.37,3.33,0,*7F
1496779524.49,30434,18.63,73570.5,4.27,3.29,3.19,0,*7F
1496779525.72,30435,18.63,73574.8,4.27,3.07,3.07,0,*7D
1496779526.97,30436,18.63,73580.3,4.25,3.11,3.07,0,*7B
1496779528.17,30437,18.63,73592.0,4.23,3.19,3.25,0,*74
1496779529.37,30438,18.63,73586.8,4.23,3.25,3.19,0,*7B
1496779530.54,30439,18.63,73590.0,4.23,3.25,3.29,0,*79
1496779531.77,30440,18.63,73588.5,4.23,3.41,3.37,0,*7A
1496779533.03,30441,18.63,73588.0,4.25,3.41,3.41,0,*7C
1496779534.23,30442,18.63,73588.5,4.23,3.25,3.19,0,*76
1496779535.46,30443,18.63,73580.5,4.23,3.15,3.15,0,*78
1496779536.69,30444,18.63,73586.0,4.23,3.15,3.15,0,*7F
1496779537.91,30445,18.63,73578.5,4.23,3.19,3.19,0,*7E
1496779539.13,30446,18.63,73588.0,4.23,3.19,3.19,0,*7D
1496779540.33,30447,18.63,73582.0,4.23,3.37,3.29,0,*73
1496779541.55,30448,18.63,73582.8,4.23,3.37,3.37,0,*73
1496779542.81,30449,18.63,73580.0,4.25,3.33,3.41,0,*71
1496779544.03,30450,18.63,73582.5,4.23,3.19,3.15,0,*76
1496779545.21,30451,18.63,73580.0,4.23,3.29,3.29,0,*7B
1496779546.44,30452,18.63,73586.5,4.23,3.49,3.41,0,*70
1496779547.66,30453,18.63,73582.3,4.23,3.37,3.37,0,*79
1496779548.84,30454,18.63,73588.5,4.23,3.25,3.25,0,*7E
1496779550.04,30455,18.63,73574.0,4.23,3.37,3.29,0,*70
1496779551.21,30456,18.63,73576.3,4.23,3.29,3.29,0,*7C
1496779552.42,30457,18.63,73588.5,4.23,3.29,3.37,0,*72
1496779553.62,30458,18.63,73576.3,4.21,3.29,3.29,0,*70
1496779554.82,30459,18.63,73580.8,4.21,3.25,3.25,0,*71
1496779556.08,30460,18.63,73594.0,4.21,3.37,3.41,0,*7A
1496779557.34,30461,18.63,73586.8,4.21,3.41,3.41,0,*7A
1496779558.6,30462,18.63,73574.0,4.21,3.41,3.41,0,*79
1496779559.83,30463,18.63,73564.5,4.21,3.41,3.29,0,*76
1496779561.01,30464,18.63,73578.3,4.23,3.29,3.29,0,*7D
1496779562.19,30465,18.63,73578.0,4.23,3.25,3.29,0,*70
1496779563.41,30466,18.63,73582.5,4.23,3.37,3.37,0,*7F
1496779564.66,30467,18.63,73580.0,4.21,3.49,3.49,0,*7C
1496779565.91,30468,18.63,73584.3,4.21,3.49,3.49,0,*73
1496779567.14,30469,18.63,73582.3,4.21,3.29,3.37,0,*7D
1496779568.37,30470,18.63,73574.0,4.21,3.29,3.37,0,*75
1496779569.57,30471,18.63,73574.0,4.21,3.29,3.29,0,*7B
1496779570.83,30472,18.63,73580.0,4.21,3.37,3.37,0,*78
1496779572.03,30473,18.63,73576.5,4.19,3.23,3.25,0,*74
1496779573.26,30474,18.63,73582.3,4.21,3.29,3.37,0,*71
1496779574.49,30475,18.63,73588.0,4.19,2.81,2.81,0,*74
1496779575.74,30476,18.63,73598.0,4.21,2.81,2.81,0,*7C
1496779576.98,30477,18.63,73590.0,4.19,2.81,2.81,0,*76
1496779578.2,30478,18.63,73586.0,4.19,2.89,2.81,0,*71
1496779579.43,30479,18.63,73594.5,4.21,2.85,2.91,0,*76
1496779580.65,30480,18.63,73596.8,4.21,2.91,2.85,0,*70
1496779581.91,30481,18.63,73594.8,4.21,3.03,3.03,0,*74
1496779583.14,30482,18.63,73590.5,4.19,2.81,2.89,0,*74
1496779584.34,30483,18.63,73602.8,4.21,2.95,2.95,0,*76
1496779585.56,30484,18.63,73606.3,4.19,3.11,3.23,0,*7B
1496779586.82,30485,18.63,73608.3,4.21,3.07,3.19,0,*7F
1496779588.08,30486,18.63,73610.8,4.21,3.15,3.15,0,*73
1496779589.32,30487,18.63,73612.0,4.21,3.19,3.19,0,*72
1496779590.57,30488,18.63,73614.5,4.21,3.19,3.15,0,*71
1496779591.8,30489,18.63,73600.5,4.21,3.03,2.91,0,*76
1496779593.0,30490,18.63,73600.5,4.21,2.95,2.91,0,*70
1496779594.21,30491,18.63,73602.3,4.21,2.91,2.95,0,*71
1496779595.46,30492,18.63,73600.3,4.21,3.07,3.19,0,*79
1496779596.72,30493,18.63,73602.3,4.21,3.15,3.15,0,*77
1496779597.98,30494,18.63,73600.0,4.21,3.07,3.03,0,*74
1496779599.21,30495,18.63,73604.8,4.21,3.07,2.95,0,*7B
1496779600.41,30496,18.63,73602.0,4.21,2.95,2.91,0,*76
1496779601.64,30497,18.63,73600.3,4.21,3.03,2.91,0,*79
1496779602.85,30498,18.63,73606.3,4.19,2.91,3.03,0,*7D
1496779604.05,30499,18.63,73622.0,4.19,2.81,2.99,0,*7F
1496779605.3,30500,18.63,73628.0,4.21,3.03,3.15,0,*7B
1496779606.53,30501,18.63,73598.5,4.21,2.95,3.03,0,*73
1496779607.79,30502,18.63,73586.0,4.21,3.03,3.15,0,*79
1496779609.05,30503,18.63,73594.3,4.21,3.07,3.15,0,*7C
1496779610.31,30504,18.63,73608.0,4.21,3.03,3.15,0,*7F
1496779611.53,30505,18.63,73602.8,4.21,2.95,3.07,0,*73
1496779612.74,30506,18.63,73600.3,4.21,2.91,2.95,0,*7E
1496779613.91,30507,18.63,73598.3,4.19,2.99,2.91,0,*78
1496779615.17,30508,18.63,73590.3,4.21,3.07,3.03,0,*70
1496779616.43,30509,18.63,73588.0,4.21,3.03,3.03,0,*75
1496779617.66,30510,18.63,73594.8,4.21,2.95,3.03,0,*73
1496779618.91,30511,18.63,73608.3,4.21,3.03,3.03,0,*7C
1496779620.12,30512,18.63,73610.3,4.19,2.99,3.03,0,*76
1496779621.37,30513,18.63,73614.5,4.21,3.03,3.03,0,*7E
1496779622.6,30514,18.63,73608.3,4.21,2.95,3.03,0,*77
1496779623.86,30515,18.63,73606.5,4.21,3.03,3.15,0,*7F
1496779625.12,30516,18.63,73608.3,4.21,3.03,3.15,0,*7C
1496779626.37,30517,18.63,73610.0,4.21,3.03,3.19,0,*71
1496779627.62,30518,18.63,73594.8,4.21,3.03,3.19,0,*7E
1496779628.85,30519,18.63,73600.5,4.21,2.91,3.15,0,*79
1496779630.1,30520,18.63,73604.5,4.21,3.07,3.19,0,*71
1496779631.36,30521,18.63,73604.8,4.21,3.15,3.37,0,*7F
1496779632.61,30522,18.63,73604.0,4.21,3.19,3.37,0,*70
1496779633.87,30523,18.63,73606.0,4.21,3.15,3.37,0,*7D
1496779635.09,30524,18.63,73606.8,4.19,3.23,3.37,0,*74
1496779636.32,30525,18.63,73600.5,4.21,3.25,3.49,0,*71
1496779637.57,30526,18.63,73602.0,4.21,3.37,3.53,0,*7A
1496779638.79,30527,18.63,73600.5,4.21,3.53,3.63,0,*7A
1496779640.04,30528,18.63,73598.3,4.21,3.49,3.53,0,*7D
1496779641.23,30529,18.63,73600.3,4.23,3.55,3.67,0,*74
1496779642.43,30530,18.63,73600.5,4.23,3.63,3.79,0,*76
1496779643.62,30531,18.63,73602.0,4.23,3.71,3.85,0,*77
1496779644.83,30532,18.63,73602.8,4.23,3.79,3.89,0,*70
1496779646.06,30533,18.63,73610.0,4.25,3.79,3.89,0,*77
1496779647.26,30534,18.63,73612.0,4.25,3.81,3.89,0,*77
1496779648.52,30535,18.63,73608.5,4.25,3.67,3.71,0,*79
1496779649.71,30536,18.63,73596.8,4.25,3.55,3.55,0,*7D
1496779650.95,30537,18.63,73588.5,4.25,3.45,3.53,0,*7B
1496779652.19,30538,18.63,73590.8,4.25,3.53,3.53,0,*73
1496779653.44,30539,18.63,73602.0,4.25,3.67,3.67,0,*72
1496779654.67,30540,18.63,73596.0,4.25,3.81,3.71,0,*73
1496779655.87,30541,18.63,73594.8,4.27,3.67,3.59,0,*72
1496779657.09,30542,18.63,73594.0,4.27,3.71,3.71,0,*7C
1496779658.27,30543,18.63,73596.8,4.27,3.81,3.81,0,*7D
1496779659.48,30544,18.63,73596.5,4.29,4.05,3.93,0,*7C
1496779660.66,30545,18.63,73596.3,4.27,3.93,3.93,0,*7B
1496779661.87,30546,18.63,73596.8,4.27,4.01,4.01,0,*78
1496779663.09,30547,18.63,73602.0,4.27,3.97,3.97,0,*79
1496779664.34,30548,18.63,73596.3,4.31,3.97,3.97,0,*71
1496779665.53,30549,18.63,73600.0,4.29,3.93,3.81,0,*7A
1496779666.77,30550,18.63,73596.5,4.29,3.75,3.71,0,*75
1496779668.0,30551,18.63,73596.8,4.29,3.71,3.67,0,*77
1496779669.24,30552,18.63,73596.0,4.29,3.75,3.75,0,*73
1496779670.46,30553,18.63,73596.3,4.27,3.71,3.67,0,*7B
1496779671.69,30554,18.63,73592.8,4.29,3.75,3.71,0,*71
1496779672.9,30555,18.63,73596.3,4.29,3.71,3.63,0,*77
1496779674.14,30556,18.63,73602.8,4.29,3.75,3.71,0,*73
1496779675.39,30557,18.63,73600.5,4.31,3.79,3.67,0,*70
1496779676.65,30558,18.63,73600.0,4.31,3.75,3.79,0,*7C
1496779677.89,30559,18.63,73604.8,4.29,3.71,3.75,0,*7C
1496779679.12,30560,18.63,73606.0,4.31,3.85,3.79,0,*78
1496779680.35,30561,18.63,73604.0,4.31,3.85,3.75,0,*75
1496779681.61,30562,18.63,73606.0,4.31,3.79,3.75,0,*75
1496779682.87,30563,18.63,73604.0,4.31,3.75,3.67,0,*7B
1496779684.08,30564,18.63,73610.8,4.31,3.59,3.59,0,*7F
1496779685.28,30565,18.63,73612.8,4.31,3.59,3.59,0,*7E
1496779686.54,30566,18.63,73608.8,4.31,3.75,3.75,0,*7D
1496779687.78,30567,18.63,73610.0,4.31,3.75,3.63,0,*7B
1496779689.01,30568,18.63,73612.8,4.33,3.67,3.67,0,*71
1496779690.25,30569,18.63,73616.5,4.33,3.75,3.75,0,*70
1496779691.51,30570,18.63,73608.0,4.31,3.79,3.75,0,*76
1496779692.77,30571,18.63,73604.8,4.31,3.67,3.67,0,*7B
1496779693.97,30572,18.63,73598.5,4.31,3.63,3.63,0,*78
1496779695.17,30573,18.63,73596.0,4.31,3.63,3.63,0,*79
1496779696.37,30574,18.63,73598.0,4.31,3.63,3.63,0,*7E
1496779697.58,30575,18.63,73602.0,4.31,3.63,3.63,0,*7F
1496779698.84,30576,18.63,73600.5,4.31,3.67,3.67,0,*7C
1496779700.07,30577,18.63,73608.3,4.33,3.67,3.67,0,*7F
1496779701.33,30578,18.63,73604.3,4.31,3.67,3.67,0,*72
1496779702.53,30579,18.63,73610.0,4.33,3.59,3.53,0,*7B
1496779703.73,30580,18.63,73612.8,4.31,3.59,3.59,0,*75
1496779704.93,30581,18.63,73614.8,4.31,3.59,3.59,0,*74
1496779706.11,30582,18.56,73622.0,4.33,3.59,3.59,0,*75
1496779707.31,30583,18.63,73606.0,4.33,3.53,3.59,0,*7E
1496779708.53,30584,18.63,73598.0,4.31,3.53,3.59,0,*7B
1496779709.76,30585,18.63,73600.5,4.31,3.59,3.53,0,*7A
1496779710.99,30586,18.63,73590.0,4.33,3.49,3.49,0,*71
1496779712.22,30587,18.63,73578.3,4.33,3.49,3.41,0,*78
1496779713.48,30588,18.63,73566.5,4.31,3.49,3.49,0,*7D
1496779714.73,30589,18.63,73568.3,4.31,3.53,3.49,0,*77
1496779715.93,30590,18.63,73568.0,4.31,3.59,3.59,0,*74
1496779717.13,30591,18.63,73576.8,4.31,3.59,3.59,0,*75
1496779718.34,30592,18.63,73578.3,4.31,3.59,3.59,0,*76
1496779719.54,30593,18.63,73586.8,4.31,3.59,3.63,0,*7E
1496779720.74,30594,18.63,73584.8,4.31,3.59,3.63,0,*79
1496779721.94,30595,18.63,73588.3,4.31,3.59,3.63,0,*78
1496779723.17,30596,18.63,73588.8,4.31,3.53,3.59,0,*78
1496779724.37,30597,18.63,73586.0,4.31,3.59,3.59,0,*73
1496779725.58,30598,18.63,73580.0,4.31,3.59,3.59,0,*7C
1496779726.75,30599,18.63,73590.5,4.33,3.59,3.59,0,*7F
1496779727.95,30600,18.63,73562.0,4.31,3.59,3.59,0,*7E
1496779729.18,30601,18.63,73570.8,4.33,3.53,3.49,0,*76
1496779730.41,30602,18.63,73580.5,4.33,3.53,3.41,0,*7D